Showing default

KINEIS-2B, 62934

Orbit data source: Space-Track

KINEIS-2B, 62934 is a French payload satellite in SSO that was launched on Sat, 08 Feb 2025 UTC via an ELECTRON launch vehicle from the Rocket Lab Launch Complex (RLLC). Payload-class satellites include a variety of spacecraft equipped with specific instruments for various scientific and technological missions. These include communications satellites like Starlink; space stations such as the ISS; scientific satellites like the Hubble; Earth observation satellites from companies like Planet Labs, Umbra, and HawkEye 360; GPS; miniature CubeSats for education and research; and military/defense satellites.

Loading next visibility...
Identifier
62934, 2025-028G
Orbit
SSO
Last TLE update
4 hours ago
Origin
Manufacturer
KINEIS
Mission
Operational Commercial Communications
Bus & Motor
CUBESAT 16U, Unknown motor
Mass
28 kg wet, 28 kg dry
Launch date (UTC)
2025-02-08 (3 months ago)
Launch vehicle
ELECTRON
Launch site
Rocket Lab Launch Complex (RLLC)
Object type
Payload
Rocket body
Debris
Shape & HBR
Box + 2 Pan + 1 Ant, 1.6 m
Radar Cross Section
0.229 m², Medium (>0.1 m² and < 1m²)

Expand to show TLE details & history

TLE from 4 hours ago
0 KINEIS-2B
1 62934U 25028G   25129.14362748  .00002421  00000-0  35445-3 0  9998
2 62934  97.9466 183.6230 0002212  38.3038 321.8328 14.76539464 13169
Epoch: 2025-05-09T03:26Z
Definitive object data (Epoch: 2025-05-09T03:26:49.414Z)
Latitude
-0.00008°
Longitude
-95.28688°
Altitude
642.063 km
Speed
7.538 km/s
True Right ascension
12h 14m 29s
True Declination
0° 00' 00"
Sunlit
Object was in full shadow at TLE epoch
Visualization TLE readout
Latitude
75.1777°
Longitude
-126.78355°
Altitude
651.904 km
Speed
7.539 km/s
Apparent Right ascension
04h 37m 32s
Apparent Declination
29° 26' 51"
Sunlit
Object is in daylight
Visualization observer readout
Local Sidereal Time
15:11:51
Azimuth
340.482° N
Elevation
-17.836°
Doppler factor
1
Orbital elements
Apogee altitude
638.868 km
Perigee altitude
635.764 km
Semi-major axis
7,015.453 km
Eccentricity
0.0002212
Inclination
97.9466°
RAAN
183.623°
Arg. of periapsis
38.3038°
True anomaly
321.81713°
Mean anomaly
321.8328°
Eccentric anomaly
321.82497°
Mean motion
3.69368 °/min
BSTAR
0.00035445
Orbital period
97.46 mins
Loading maneuver chart data...
Loading SW <> Apogee altitude chart data...
Loading historical data...
Loading historical data...
Loading historical data...
Loading historical data...
Loading historical data...
Loading historical data...
Loading historical data...

KINEIS-2B Visibility forecast

Observer location: undefined°, undefined°

Span
Click to sort rows by Start time (UTC) header in descending order
Start Az.
Max El. time (UTC)
Max El. Az.
Max El.
End time (UTC)
End Az.
5 mins2025-05-09 15:25:55.447Z58.116° ENE2025-05-09 15:27:55.447Z88.317° E16.816°2025-05-09 15:30:55.447Z133.219° SE
7 mins2025-05-09 17:01:55.447Z349.631° N2025-05-09 17:04:55.447Z285.694° WNW32.47°2025-05-09 17:08:55.447Z219.905° SW
6 mins2025-05-10 03:58:55.447Z195.097° SSW2025-05-10 04:00:55.447Z242.958° WSW37.184°2025-05-10 04:04:55.447Z334.117° NNW
|